User: anonymous   Login
Location: Caserta
(41.0670°N, 14.3330°E)
Time: 19:46:43
(UTC+02:00)
Language:

STARLINK-1390 - Orbit

View from above orbital plane
View from above orbital plane
View from above satellite
View from above satellite

Ground track
Ground track

The orbit data is extracted from the following two-line orbital elements,

1 45550U 20025V   20228.50001157 -.00017513  00000-0 -11854-2 0  9991
2 45550  52.9956 229.4911 0001352  88.3116  31.5083 15.05589699 18201
Epoch (UTC): 15 August 2020 12:00:01
Eccentricity: 0.0001352
inclination: 52.9956°
perigee height: 549 km
apogee height: 550 km
right ascension of ascending node: 229.4911°
argument of perigee: 88.3116°
revolutions per day: 15.05589699
mean anomaly at epoch: 31.5083°
orbit number at epoch: 1820

The dashed part of the orbit path shows where the satellite is in the earth's shadow,  

DLR